EW4883 Weather Reports


Display with metric or nautical units.
time (UTC)temp
F
wind
direction
speed
MPH
gust
MPH
rain 1hr
in
rain 24hr
in
rain mn
in
humidity
%
barometer
mb
20260510194552 97 279 6.0 11.0 0.00 0.00 0.00 6 1013.9
20260510194053 96 285 6.0 12.0 0.00 0.00 0.00 6 1013.8
20260510193549 96 221 5.0 12.0 0.00 0.00 0.00 6 1013.9
20260510193103 97 12 5.0 11.0 0.00 0.00 0.00 6 1013.9
20260510192548 97 317 4.0 11.0 0.00 0.00 0.00 6 1013.9
20260510192051 97 323 4.0 11.0 0.00 0.00 0.00 7 1013.9
20260510191554 96 111 1.0 9.0 0.00 0.00 0.00 6 1013.9
20260510191049 96 30 4.0 9.0 0.00 0.00 0.00 6 1014.0
20260510190552 96 300 1.0 12.0 0.00 0.00 0.00 7 1014.0
20260510190057 96 259 4.0 12.0 0.00 0.00 0.00 7 1014.0
20260510185548 96 24 4.0 11.0 0.00 0.00 0.00 7 1014.0
20260510185047 96 299 3.0 10.0 0.00 0.00 0.00 7 1014.1
20260510184552 95 36 5.0 10.0 0.00 0.00 0.00 7 1014.2
20260510184051 95 297 3.0 9.0 0.00 0.00 0.00 7 1014.2
20260510183548 95 251 4.0 9.0 0.00 0.00 0.00 7 1014.3
20260510183053 95 254 2.0 7.0 0.00 0.00 0.00 7 1014.3
20260510182552 95 310 3.0 8.0 0.00 0.00 0.00 7 1014.4
20260510182050 94 240 1.0 9.0 0.00 0.00 0.00 8 1014.4
20260510181606 94 248 1.0 9.0 0.00 0.00 0.00 8 1014.4
20260510181048 94 252 4.0 9.0 0.00 0.00 0.00 7 1014.5
20260510180552 94 320 4.0 9.0 0.00 0.00 0.00 8 1014.4
20260510180105 94 352 3.0 9.0 0.00 0.00 0.00 8 1014.5
20260510175551 93 15 2.0 8.0 0.00 0.00 0.00 8 1014.5
20260510175048 93 297 3.0 8.0 0.00 0.00 0.00 8 1014.5
20260510174555 92 250 1.0 7.0 0.00 0.00 0.00 9 1014.5
20260510174050 92 247 1.0 7.0 0.00 0.00 0.00 9 1014.5
20260510173550 92 244 1.0 7.0 0.00 0.00 0.00 9 1014.5
20260510173057 93 252 2.0 7.0 0.00 0.00 0.00 9 1014.5
20260510172548 92 339 2.0 5.0 0.00 0.00 0.00 9 1014.5
20260510172048 91 290 1.0 4.0 0.00 0.00 0.00 10 1014.5
20260510171603 91 300 0.0 4.0 0.00 0.00 0.00 10 1014.5
20260510171047 91 300 1.0 7.0 0.00 0.00 0.00 10 1014.5
20260510170551 91 302 2.0 7.0 0.00 0.00 0.00 10 1014.5
20260510170116 91 340 0.0 4.0 0.00 0.00 0.00 10 1014.5
20260510165553 91 284 1.0 4.0 0.00 0.00 0.00 10 1014.4
20260510165053 90 305 1.0 4.0 0.00 0.00 0.00 11 1014.5
20260510164601 90 38 0.0 4.0 0.00 0.00 0.00 10 1014.4
20260510164056 89 0 1.0 4.0 0.00 0.00 0.00 12 1014.4
20260510163554 89 47 2.0 6.0 0.00 0.00 0.00 11 1014.4
20260510163054 88 50 1.0 6.0 0.00 0.00 0.00 12 1014.4
20260510162553 88 52 1.0 6.0 0.00 0.00 0.00 12 1014.4
20260510162053 87 59 2.0 8.0 0.00 0.00 0.00 13 1014.4
20260510161554 87 59 3.0 8.0 0.00 0.00 0.00 13 1014.4
20260510161056 87 44 2.0 5.0 0.00 0.00 0.00 13 1014.4
20260510160552 86 83 1.0 6.0 0.00 0.00 0.00 13 1014.4
20260510160100 86 360 2.0 6.0 0.00 0.00 0.00 13 1014.4
20260510155553 85 360 1.0 8.0 0.00 0.00 0.00 13 1014.4
20260510155057 85 360 3.0 8.0 0.00 0.00 0.00 14 1014.4
20260510154603 84 360 2.0 8.0 0.00 0.00 0.00 14 1014.4
20260510154054 84 360 3.0 8.0 0.00 0.00 0.00 14 1014.4
20260510153552 84 360 2.0 6.0 0.00 0.00 0.00 14 1014.4
20260510153053 84 360 2.0 5.0 0.00 0.00 0.00 14 1014.4
20260510152552 83 360 1.0 6.0 0.00 0.00 0.00 14 1014.4
20260510152056 83 360 3.0 6.0 0.00 0.00 0.00 14 1014.4
20260510151554 82 0 1.0 5.0 0.00 0.00 0.00 15 1014.4
20260510151054 82 360 2.0 5.0 0.00 0.00 0.00 16 1014.4
20260510150554 81 360 2.0 5.0 0.00 0.00 0.00 16 1014.4
20260510150054 81 360 3.0 5.0 0.00 0.00 0.00 16 1014.3
20260510145554 81 360 2.0 4.0 0.00 0.00 0.00 17 1014.3
20260510145054 80 360 2.0 4.0 0.00 0.00 0.00 17 1014.3
20260510144550 80 360 2.0 4.0 0.00 0.00 0.00 18 1014.2
20260510144052 79 360 0.0 3.0 0.00 0.00 0.00 18 1014.2
20260510143554 78 360 0.0 3.0 0.00 0.00 0.00 17 1014.2
20260510143055 78 0 0.0 3.0 0.00 0.00 0.00 18 1014.2
20260510142553 77 0 0.0 4.0 0.00 0.00 0.00 19 1014.1
20260510142053 77 360 2.0 4.0 0.00 0.00 0.00 20 1014.0
20260510141554 76 0 0.0 3.0 0.00 0.00 0.00 21 1014.0
20260510141052 76 0 0.0 3.0 0.00 0.00 0.00 21 1014.0
20260510140556 76 360 0.0 3.0 0.00 0.00 0.00 21 1013.9
20260510140052 76 0 0.0 2.0 0.00 0.00 0.00 20 1013.9
20260510135553 76 0 0.0 0.0 0.00 0.00 0.00 20 1013.9
20260510135054 75 0 0.0 0.0 0.00 0.00 0.00 20 1013.9
20260510134555 74 0 0.0 0.0 0.00 0.00 0.00 21 1013.9
20260510134057 73 0 0.0 1.0 0.00 0.00 0.00 22 1013.8
20260510133555 72 0 0.0 1.0 0.00 0.00 0.00 24 1013.8
20260510133058 71 0 0.0 1.0 0.00 0.00 0.00 24 1013.6
20260510132553 70 0 0.0 1.0 0.00 0.00 0.00 24 1013.6
20260510132055 69 0 0.0 1.0 0.00 0.00 0.00 25 1013.7
20260510131602 68 0 0.0 0.0 0.00 0.00 0.00 26 1013.6
20260510131053 68 0 0.0 0.0 0.00 0.00 0.00 26 1013.6
20260510130557 67 0 0.0 4.0 0.00 0.00 0.00 26 1013.5
20260510130055 67 0 0.0 4.0 0.00 0.00 0.00 26 1013.5
20260510125552 67 360 1.0 4.0 0.00 0.00 0.00 25 1013.4
20260510125052 66 360 1.0 3.0 0.00 0.00 0.00 25 1013.3
20260510124611 66 0 0.0 0.0 0.00 0.00 0.00 25 1013.2
20260510124056 67 0 0.0 0.0 0.00 0.00 0.00 24 1013.2
20260510123554 67 0 0.0 0.0 0.00 0.00 0.00 24 1013.2
20260510123059 67 0 0.0 0.0 0.00 0.00 0.00 24 1013.1
20260510122553 67 0 0.0 0.0 0.00 0.00 0.00 23 1013.0
20260510122053 68 0 0.0 0.0 0.00 0.00 0.00 23 1013.0
20260510121555 68 0 0.0 0.0 0.00 0.00 0.00 22 1013.0
20260510121053 68 0 0.0 0.0 0.00 0.00 0.00 23 1012.9
20260510120554 69 0 0.0 0.0 0.00 0.00 0.00 22 1013.0
20260510120055 69 0 0.0 3.0 0.00 0.00 0.00 22 1012.9
20260510115553 69 0 0.0 3.0 0.00 0.00 0.00 22 1013.0
20260510115100 69 0 1.0 3.0 0.00 0.00 0.00 22 1012.9
20260510114553 70 0 0.0 2.0 0.00 0.00 0.00 21 1012.8
20260510114053 70 0 0.0 2.0 0.00 0.00 0.00 21 1012.7
20260510113554 70 0 0.0 2.0 0.00 0.00 0.00 20 1012.7
20260510113105 69 0 0.0 4.0 0.00 0.00 0.00 21 1012.5
20260510112553 69 360 1.0 4.0 0.00 0.00 0.00 22 1012.6
20260510112053 69 360 2.0 4.0 0.00 0.00 0.00 21 1012.7
20260510111629 69 360 1.0 3.0 0.00 0.00 0.00 21 1012.7
20260510111055 70 0 0.0 4.0 0.00 0.00 0.00 21 1012.7
20260510110553 70 360 2.0 4.0 0.00 0.00 0.00 21 1012.6
20260510110059 70 360 1.0 3.0 0.00 0.00 0.00 21 1012.6
20260510105555 70 360 1.0 3.0 0.00 0.00 0.00 21 1012.6
20260510105054 70 360 2.0 3.0 0.00 0.00 0.00 21 1012.6
20260510104607 70 360 2.0 3.0 0.00 0.00 0.00 21 1012.5
20260510104053 70 360 1.0 3.0 0.00 0.00 0.00 21 1012.7
20260510103553 70 360 1.0 3.0 0.00 0.00 0.00 21 1012.7
20260510103055 70 0 0.0 2.0 0.00 0.00 0.00 22 1012.6
20260510102553 70 360 0.0 2.0 0.00 0.00 0.00 22 1012.6
20260510102052 70 0 0.0 2.0 0.00 0.00 0.00 21 1012.6
20260510101554 71 0 0.0 3.0 0.00 0.00 0.00 21 1012.6
20260510101053 71 360 0.0 3.0 0.00 0.00 0.00 21 1012.6
20260510100553 71 0 0.0 3.0 0.00 0.00 0.00 20 1012.7
20260510100059 71 0 0.0 0.0 0.00 0.00 0.00 21 1012.7
20260510095553 72 0 0.0 0.0 0.00 0.00 0.00 20 1012.5
20260510095055 73 0 0.0 0.0 0.00 0.00 0.00 19 1012.5
20260510094556 73 0 0.0 0.0 0.00 0.00 0.00 19 1012.5
20260510094053 73 0 0.0 1.0 0.00 0.00 0.00 19 1012.5
20260510093552 74 0 0.0 1.0 0.00 0.00 0.00 19 1012.5
20260510093053 74 0 0.0 2.0 0.00 0.00 0.00 18 1012.5
20260510092554 75 0 0.0 2.0 0.00 0.00 0.00 18 1012.5
20260510092053 75 360 0.0 2.0 0.00 0.00 0.00 18 1012.4
20260510091602 76 0 0.0 2.0 0.00 0.00 0.00 17 1012.5
20260510091053 76 0 0.0 3.0 0.00 0.00 0.00 17 1012.4
20260510090557 76 0 1.0 3.0 0.00 0.00 0.00 17 1012.4
20260510085556 76 0 0.0 3.0 0.00 0.00 0.00 17 1012.3
20260510085053 76 360 1.0 3.0 0.00 0.00 0.00 17 1012.3
20260510084559 76 360 0.0 3.0 0.00 0.00 0.00 17 1012.3
20260510084053 77 360 0.0 4.0 0.00 0.00 0.00 17 1012.1
20260510083553 77 0 2.0 4.0 0.00 0.00 0.00 17 1012.2
20260510083108 77 360 2.0 4.0 0.00 0.00 0.00 17 1012.2
20260510082553 77 360 1.0 4.0 0.00 0.00 0.00 16 1012.2
20260510082054 78 360 0.0 5.0 0.00 0.00 0.00 16 1012.1
20260510081601 78 360 2.0 5.0 0.00 0.00 0.00 16 1012.1
20260510081054 79 360 2.0 5.0 0.00 0.00 0.00 15 1012.1
20260510080553 81 360 2.0 4.0 0.00 0.00 0.00 14 1012.1
20260510075557 83 0 1.0 9.0 0.00 0.00 0.00 12 1012.1
20260510075055 83 360 4.0 11.0 0.00 0.00 0.00 12 1012.1
20260510074553 84 360 5.0 13.0 0.00 0.00 0.00 12 1012.1
20260510074054 84 360 6.0 13.0 0.00 0.00 0.00 12 1012.1
20260510073553 84 360 5.0 12.0 0.00 0.00 0.00 12 1012.0
20260510073057 84 360 7.0 12.0 0.00 0.00 0.00 12 1012.2
20260510072553 84 360 8.0 12.0 0.00 0.00 0.00 12 1012.2
20260510072052 84 360 7.0 13.0 0.00 0.00 0.00 12 1012.0
20260510071554 84 360 6.0 15.0 0.00 0.00 0.00 12 1012.1
20260510071054 84 360 7.0 15.0 0.00 0.00 0.00 12 1012.2
20260510070553 85 360 8.0 17.0 0.00 0.00 0.00 12 1012.2
20260510070057 85 360 8.0 17.0 0.00 0.00 0.00 12 1012.2
20260510065553 85 360 7.0 16.0 0.00 0.00 0.00 12 1012.1
20260510065053 84 360 8.0 21.0 0.00 0.00 0.00 12 1012.1
20260510064609 85 360 7.0 21.0 0.00 0.00 0.00 12 1012.2
20260510064053 85 360 9.0 21.0 0.00 0.00 0.00 12 1012.2
20260510063554 85 360 7.0 20.0 0.00 0.00 0.00 12 1012.1
20260510063054 85 360 9.0 20.0 0.00 0.00 0.00 12 1012.2
20260510062556 85 360 8.0 16.0 0.00 0.00 0.00 12 1012.3
20260510062053 85 360 8.0 16.0 0.00 0.00 0.00 12 1012.2
20260510061556 85 360 7.0 17.0 0.00 0.00 0.00 12 1012.1
20260510061057 85 360 8.0 17.0 0.00 0.00 0.00 12 1012.1
20260510060557 85 360 8.0 16.0 0.00 0.00 0.00 12 1012.0
20260510060053 85 360 7.0 16.0 0.00 0.00 0.00 12 1012.1
20260510055554 86 360 8.0 14.0 0.00 0.00 0.00 12 1012.0
20260510055053 85 360 7.0 15.0 0.00 0.00 0.00 12 1012.0
20260510054552 85 360 6.0 15.0 0.00 0.00 0.00 11 1011.9
20260510054052 85 360 7.0 15.0 0.00 0.00 0.00 11 1011.8
20260510053553 85 360 4.0 10.0 0.00 0.00 0.00 11 1011.8
20260510053050 85 360 6.0 10.0 0.00 0.00 0.00 11 1011.8
20260510052554 85 360 4.0 9.0 0.00 0.00 0.00 12 1011.7
20260510052053 85 360 3.0 9.0 0.00 0.00 0.00 12 1011.6
20260510051601 85 360 4.0 8.0 0.00 0.00 0.00 12 1011.5
20260510051054 84 360 3.0 8.0 0.00 0.00 0.00 12 1011.5
20260510050557 84 360 3.0 8.0 0.00 0.00 0.00 12 1011.5
20260510050059 85 360 3.0 8.0 0.00 0.00 0.00 12 1011.4
20260510045554 84 360 3.0 8.0 0.00 0.00 0.00 12 1011.4
20260510045054 84 360 3.0 6.0 0.00 0.00 0.00 13 1011.4
20260510044604 85 360 3.0 6.0 0.00 0.00 0.00 13 1011.3
20260510044053 85 360 3.0 8.0 0.00 0.00 0.00 13 1011.2
20260510043548 85 360 2.0 8.0 0.00 0.00 0.00 13 1011.2
20260510043056 85 360 2.0 8.0 0.00 0.00 0.00 12 1011.2
20260510042550 85 360 2.0 5.0 0.00 0.00 0.00 12 1011.1
20260510042048 85 360 2.0 6.0 0.00 0.00 0.00 12 1011.1
20260510041604 85 360 3.0 6.0 0.00 0.00 0.00 12 1010.9
20260510041051 86 360 3.0 6.0 0.00 0.00 0.00 12 1010.8
20260510040549 86 360 2.0 6.0 0.00 0.00 0.00 12 1010.8
20260510040052 86 360 3.0 6.0 0.00 0.00 0.00 12 1010.8
20260510035551 86 360 3.0 5.0 0.00 0.00 0.00 12 1010.7
20260510035049 86 360 2.0 5.0 0.00 0.00 0.00 12 1010.6
20260510034603 86 360 3.0 5.0 0.00 0.00 0.00 12 1010.6
20260510034054 86 360 3.0 5.0 0.00 0.00 0.00 11 1010.4
20260510033551 86 360 2.0 5.0 0.00 0.00 0.00 11 1010.4
20260510033054 86 360 2.0 6.0 0.00 0.00 0.00 11 1010.4
20260510032551 87 360 3.0 6.0 0.00 0.00 0.00 11 1010.3
20260510032051 87 360 4.0 8.0 0.00 0.00 0.00 11 1010.3
20260510031606 87 360 3.0 8.0 0.00 0.00 0.00 11 1010.2
20260510031053 87 360 3.0 6.0 0.00 0.00 0.00 11 1010.1
20260510030548 86 360 3.0 4.0 0.00 0.00 0.00 11 1010.1
20260510030057 87 360 2.0 4.0 0.00 0.00 0.00 11 1010.1
20260510025551 87 360 2.0 4.0 0.00 0.00 0.00 11 1009.9
20260510025050 87 360 2.0 4.0 0.00 0.00 0.00 11 1009.9
20260510024555 87 360 2.0 3.0 0.00 0.00 0.00 11 1009.8
20260510024048 88 360 1.0 3.0 0.00 0.00 0.00 11 1009.7
20260510023551 88 360 1.0 3.0 0.00 0.00 0.00 10 1009.6
20260510023053 88 360 1.0 3.0 0.00 0.00 0.00 10 1009.6
20260510022550 89 360 0.0 2.0 0.00 0.00 0.00 11 1009.5
20260510022051 90 0 0.0 3.0 0.00 0.00 0.00 10 1009.5
20260510021550 90 0 0.0 4.0 0.00 0.00 0.00 10 1009.5
20260510021048 91 360 1.0 6.0 0.00 0.00 0.00 9 1009.4
20260510020548 91 360 1.0 6.0 0.00 0.00 0.00 9 1009.4
20260510020055 92 360 0.0 6.0 0.00 0.00 0.00 9 1009.4
20260510015552 92 360 2.0 6.0 0.00 0.00 0.00 9 1009.4
20260510015052 93 317 2.0 5.0 0.00 0.00 0.00 9 1009.3
20260510014600 93 277 1.0 8.0 0.00 0.00 0.00 9 1009.3
20260510014052 94 297 2.0 8.0 0.00 0.00 0.00 8 1009.3
20260510013551 94 291 3.0 8.0 0.00 0.00 0.00 8 1009.3
20260510013102 94 302 1.0 7.0 0.00 0.00 0.00 8 1009.3
20260510012551 94 283 2.0 7.0 0.00 0.00 0.00 8 1009.2
20260510012048 94 288 2.0 13.0 0.00 0.00 0.00 8 1009.2
20260510011549 95 307 5.0 13.0 0.00 0.00 0.00 8 1009.2
20260510011051 95 304 4.0 12.0 0.00 0.00 0.00 8 1009.2
20260510010551 95 308 4.0 12.0 0.00 0.00 0.00 8 1009.2
20260510010052 95 333 5.0 12.0 0.00 0.00 0.00 8 1009.3
20260510005551 96 265 4.0 9.0 0.00 0.00 0.00 8 1009.3
20260510005052 96 328 3.0 9.0 0.00 0.00 0.00 8 1009.2
20260510004550 96 267 4.0 9.0 0.00 0.00 0.00 8 1009.2
20260510004051 96 339 3.0 10.0 0.00 0.00 0.00 8 1009.3
20260510003556 96 342 4.0 10.0 0.00 0.00 0.00 8 1009.3
20260510003057 96 321 2.0 13.0 0.00 0.00 0.00 8 1009.3
20260510002549 96 333 4.0 13.0 0.00 0.00 0.00 8 1009.3
20260510002048 96 246 7.0 13.0 0.00 0.00 0.00 7 1009.4
20260510001554 97 252 5.0 13.0 0.00 0.00 0.00 7 1009.4
20260510001053 97 279 7.0 13.0 0.00 0.00 0.00 7 1009.4
20260510000549 97 360 4.0 12.0 0.00 0.00 0.00 8 1009.3
20260510000104 97 266 5.0 12.0 0.00 0.00 0.00 8 1009.4
20260509235551 97 263 4.0 13.0 0.00 0.00 0.00 7 1009.5
20260509235051 97 218 5.0 14.0 0.00 0.00 0.00 8 1009.4
20260509234603 97 254 6.0 14.0 0.00 0.00 0.00 7 1009.4
20260509234051 96 293 7.0 14.0 0.00 0.00 0.00 8 1009.5
20260509233552 97 281 6.0 14.0 0.00 0.00 0.00 7 1009.5
20260509233055 97 256 4.0 14.0 0.00 0.00 0.00 8 1009.6
20260509232548 97 227 5.0 11.0 0.00 0.00 0.00 7 1009.7
20260509232048 97 304 4.0 10.0 0.00 0.00 0.00 8 1009.7
20260509231607 97 263 4.0 15.0 0.00 0.00 0.00 8 1009.7
20260509231050 97 336 7.0 15.0 0.00 0.00 0.00 8 1009.7
20260509230552 97 24 4.0 12.0 0.00 0.00 0.00 8 1009.8
20260509230103 97 275 3.0 10.0 0.00 0.00 0.00 8 1009.9
20260509225551 97 72 1.0 7.0 0.00 0.00 0.00 8 1009.8
20260509225055 97 0 1.0 13.0 0.00 0.00 0.00 8 1010.0
20260509224557 97 247 4.0 15.0 0.00 0.00 0.00 8 1010.0
20260509224055 97 281 8.0 16.0 0.00 0.00 0.00 8 1010.2
20260509223552 97 248 9.0 17.0 0.00 0.00 0.00 8 1010.1
20260509223055 97 309 7.0 17.0 0.00 0.00 0.00 8 1010.2
20260509222552 97 246 3.0 15.0 0.00 0.00 0.00 8 1010.3
20260509222051 97 259 8.0 15.0 0.00 0.00 0.00 8 1010.3
20260509221554 97 287 4.0 10.0 0.00 0.00 0.00 8 1010.3
20260509221054 97 250 6.0 12.0 0.00 0.00 0.00 8 1010.3
20260509220553 97 298 2.0 12.0 0.00 0.00 0.00 8 1010.4
20260509220053 97 284 4.0 11.0 0.00 0.00 0.00 8 1010.6
20260509215553 97 360 6.0 12.0 0.00 0.00 0.00 8 1010.7
20260509215053 96 297 5.0 12.0 0.00 0.00 0.00 8 1010.7
20260509214552 97 352 4.0 12.0 0.00 0.00 0.00 8 1010.8
20260509214053 96 282 6.0 12.0 0.00 0.00 0.00 9 1011.0
20260509213553 96 9 0.0 6.0 0.00 0.00 0.00 9 1011.0
20260509213054 96 271 2.0 12.0 0.00 0.00 0.00 8 1011.1
20260509212553 96 5 3.0 12.0 0.00 0.00 0.00 9 1011.2
20260509212053 96 5 5.0 12.0 0.00 0.00 0.00 8 1011.3
20260509211559 95 14 5.0 12.0 0.00 0.00 0.00 9 1011.3
20260509211053 96 243 7.0 11.0 0.00 0.00 0.00 9 1011.4
20260509210557 95 254 4.0 11.0 0.00 0.00 0.00 9 1011.5
20260509210107 96 250 2.0 11.0 0.00 0.00 0.00 9 1011.6
20260509205556 96 242 4.0 10.0 0.00 0.00 0.00 9 1011.7
20260509205053 96 227 3.0 9.0 0.00 0.00 0.00 9 1011.8
20260509204553 95 0 2.0 8.0 0.00 0.00 0.00 9 1011.8
20260509204053 94 5 1.0 13.0 0.00 0.00 0.00 9 1012.0
20260509203555 95 236 6.0 13.0 0.00 0.00 0.00 9 1012.1
20260509203054 95 251 2.0 11.0 0.00 0.00 0.00 9 1012.1
20260509202557 95 288 6.0 11.0 0.00 0.00 0.00 9 1012.1
20260509202053 95 282 5.0 11.0 0.00 0.00 0.00 9 1012.1
20260509201602 95 261 6.0 11.0 0.00 0.00 0.00 9 1012.1
20260509201052 95 284 3.0 15.0 0.00 0.00 0.00 9 1012.3
20260509200553 94 327 4.0 15.0 0.00 0.00 0.00 9 1012.4
20260509200106 94 273 5.0 15.0 0.00 0.00 0.00 9 1012.5
20260509195557 94 244 5.0 12.0 0.00 0.00 0.00 9 1012.5
20260509195056 94 237 3.0 12.0 0.00 0.00 0.00 9 1012.5